Regional Weather Roundup
Issued by NWS

Home | Current Version | Previous Version | Graphics & Text | Print | Product List | Glossary On
Versions: 1 2 3 4 5 6 7 8 9 10 11 12 13 14 15 16 17 18 19 20 21 22 23 24 25 26 27 28 29 30 31 32 33 34 35 36 37 38 39 40 41 42 43 44 45 46 47 48 49 50
000
ASUS43 KMPX 240710
RWRMN
WEATHER ROUNDUP FOR MINNESOTA
NATIONAL WEATHER SERVICE TWIN CITIES/CHANHASSEN MN
200 AM CDT WED MAY 24 2017


NOTE: "FAIR" INDICATES FEW OR NO CLOUDS BELOW 12,000 FEET WITH NO
SIGNIFICANT WEATHER AND/OR OBSTRUCTIONS TO VISIBILITY. N/A MEANS
CURRENT SKY AND/OR WEATHER CONDITIONS ARE NOT AVAILABLE.

MNZ060>063-068>070-240800-
   Twin Cities Metro

CITY           SKY/WX    TMP DP  RH WIND       PRES   REMARKS
TWIN CITIES    PTCLDY    49  43  80 N8        29.80F
ST PAUL        PTCLDY    48  44  86 N5        29.81S
CRYSTAL        CLEAR     47  42  83 N7        29.80F
BLAINE         CLEAR     48  46  93 MISG      29.81F
LAKEVILLE      CLOUDY    48  45  87 N7        29.79S
EDEN PRAIRIE   CLEAR     50  44  80 N9        29.79S
SOUTH ST PAUL  MOCLDY    50  44  81 N6        29.80S
LAKE ELMO      CLOUDY    46  45  93 N7        29.81S
$$
MNZ001>005-007-008-013>017-022>024-027-028-240800-
   Northwest Minnesota

CITY           SKY/WX    TMP DP  RH WIND       PRES   REMARKS
BEMIDJI        CLEAR     34  34  98 CALM      29.88F
HALLOCK        MOCLDY    43  39  87 S7        29.89F
ROSEAU         CLEAR     43  37  81 CALM      29.91S
WARROAD        CLEAR     43  37  81 W5        29.91F
THIEF RVR FALL CLEAR     41  39  93 CALM      29.91
CROOKSTON      CLEAR     45  43  93 CALM      29.91F
FOSSTON        CLEAR     37  36  93 CALM      29.90F
DETROIT LAKES  CLEAR     45  43  93 NE5       29.89F
MOORHEAD       CLEAR     41  39  93 N5        29.90S
PARK RAPIDS    MOCLDY    47  41  80 N7        29.87F
MAHNOMEN       FAIR      38  38  97 E5        29.89F
$$
MNZ006-009>011-018-025>026-240800-
   North Central Minnesota

CITY           SKY/WX    TMP DP  RH WIND       PRES   REMARKS
BAUDETTE       CLEAR     38  37  97 CALM      29.90F
FLAG ISLAND    CLEAR     50  43  76 CALM      29.89F
INTL FALLS     CLEAR     35  32  88 CALM      29.89F
WASKISH        CLEAR     36  36 100 CALM      29.90S FOG
BIG FORK       CLEAR     34  34 100 CALM      29.89S
LONGVILLE      CLOUDY    48  45  87 CALM      29.87F
GRAND RAPIDS   CLOUDY    48  42  80 N5        29.89F
CRANE LAKE     CLEAR     32  32 100 CALM      29.91F
ORR            CLEAR     36  34  93 CALM      29.87S FOG
COOK           CLEAR     37  36  93 CALM      29.89F
WALKER         PTSUNNY   45  41  88 N3        29.88S
$$
MNZ012-019>021-037-240800-
   Northeast Minnesota

CITY           SKY/WX    TMP DP  RH WIND       PRES   REMARKS
DULUTH         CLOUDY    47  45  93 NE6       29.84F
ELY            CLEAR     39  37  93 CALM      29.88F
HIBBING        CLEAR     39  38  96 CALM      29.87F
EVELETH        CLEAR     42  40  90 CALM      29.88F
DULUTH HARBOR  CLOUDY    46  45  93 CALM      29.87S
TWO HARBORS    MOCLDY    50  45  81 CALM      29.84F
SILVER BAY     CLOUDY    46  46 100 CALM      29.84F
GRAND MARAIS     N/A     51  41  68 N6        29.86F
G MARAIS ARPRT CLOUDY    43  36  75 N5        29.87F
$$
MNZ029>031-032-039>041-046>048-054>057-064-240800-
   West Central Minnesota

CITY           SKY/WX    TMP DP  RH WIND       PRES   REMARKS
FERGUS FALLS   CLEAR     45  45 100 NE3       29.87S
WHEATON        CLEAR     43  43 100 CALM      29.89F
MORRIS         CLEAR     45  43  93 NW7       29.85F
ALEXANDRIA     MOCLDY    48  45  89 NE8       29.86F
ELBOW LAKE     FAIR      45  44  96 E3        29.87F
WADENA         CLOUDY    48  43  81 N5        29.86F
GLENWOOD       CLEAR     45  43  93 NE8       29.85F
APPLETON       CLEAR     46  43  87 NW5       29.85F
BENSON         CLEAR     45  43  93 CALM      29.86F
ORTONVILLE     PTCLDY    45  43  93 N7        29.86F
MADISON        CLEAR     48  48 100 N8        29.86S
WILLMAR        FAIR      48  46  93 N8        29.84F
$$
MNZ033>034-036-042>043-049>051-058-059-240800-
   Central Minnesota

CITY           SKY/WX    TMP DP  RH WIND       PRES   REMARKS
ST CLOUD       MOCLDY    49  45  86 N7        29.84F
SAUK CENTRE    CLOUDY    49  46  90 N6        29.85F
PAYNESVILLE    CLOUDY    49  49 100 NE7       29.84F
AITKIN         CLOUDY    46  45  93 CALM      29.85F
PINE RIVER     CLOUDY    48  45  87 N6        29.90F
BRAINERD       CLOUDY    49  47  93 CALM      29.87F
STAPLES        CLOUDY    48  43  81 CALM      29.86F
LONG PRAIRIE   CLOUDY    48  45  87 N8        29.86F
LITTLE FALLS   CLOUDY    46  45  93 CALM      29.86F
LITCHFIELD     CLOUDY    52  48  87 N5        29.83
BUFFALO        CLOUDY    48  43  83 N8        29.83F
MAPLE LAKE     CLOUDY    50  46  85 N6        29.84F
HUTCHINSON     MOCLDY    50  46  85 N8        29.83F
$$
MNZ037-044-045-052-053-240800-
   East Central Minnesota

CITY           SKY/WX    TMP DP  RH WIND       PRES   REMARKS
PRINCETON      MOCLDY    48  45  87 N7        29.84F
MORA           CLOUDY    45  41  87 CALM      29.86F
CAMBRIDGE      CLOUDY    52  43  71 N5        29.81F
RUSH CITY      CLOUDY    47  44  88 N3        29.83F
MOOSE LAKE     MOCLDY    45  43  93 N3        29.84F
HINCKLEY       FAIR      45  45 100 N6        29.84F
CLOQUET        CLOUDY    46  43  87 N5        29.85F
MCGREGOR       CLOUDY    46  46 100 NW3       29.87F
$$
MNZ071>073-080-081-089-090-097-098-240800-
   Southwest Minnesota

CITY           SKY/WX    TMP DP  RH WIND       PRES   REMARKS
MONTEVIDEO     CLEAR     46  46 100 NE6       29.84F
CANBY          CLEAR     46  45  97 CALM      29.87S
MARSHALL       PTCLDY    47  45  93 NW7       29.84F
REDWOOD FALLS  MOCLDY    50  45  83 N6        29.82F
OLIVIA         PTCLDY    50  46  87 N6        29.82F
PIPESTONE      CLEAR     46  43  87 N7        29.83F
WINDOM         CLEAR     46  45  93 N9        29.81F
WORTHINGTON    CLEAR     45  44  97 N9        29.82F
JACKSON        CLEAR     46  45  93 CALM      29.80F
TRACY          MOCLDY    49  47  95 NW7       29.84S
SLAYTON        PTCLDY    45  44  95 NW8       29.84S
$$
MNZ065>067-074>077-082>085-091>093-240800-
   South Central Minnesota

CITY           SKY/WX    TMP DP  RH WIND       PRES   REMARKS
MANKATO        PTCLDY    49  45  86 N10       29.79F
NEW ULM        CLEAR     48  45  87 N7        29.80F
ST JAMES       CLEAR     48  45  87 NW9       29.80F
FAIRMONT       CLOUDY    50  47  89 N13       29.78F
GLENCOE        CLEAR     49  47  92 N7        29.80F
FARIBAULT      CLOUDY    52  45  76 N6        29.78F
OWATONNA       CLOUDY    50  45  81 N12       29.77S
WASECA         CLOUDY    50  46  87 N7        29.78F
ALBERT LEA     MOCLDY    52  48  87 N9        29.75F
$$
MNZ078>079-086>088-094>096-240800-
   Southeast Minnesota

CITY           SKY/WX    TMP DP  RH WIND       PRES   REMARKS
ROCHESTER      MOCLDY    49  47  93 N12       29.75S
RED WING       CLOUDY    52  43  71 NE8G16    29.77S
STANTON        CLOUDY    50  46  83 N14       29.77S
DODGE CENTER   PTCLDY    48  45  87 N9        29.75S
WINONA         CLOUDY    54  46  76 NE3       29.74S
AUSTIN         MOCLDY    48  46  93 N8        29.74S
PRESTON        CLOUDY    49  46  90 NE7       29.73S
$$
ABBREVIATIONS USED IN REMARKS
   TC - TEMPERATURES IN CELSIUS
  WCI - WIND CHILL INDEX
   HX - HEAT INDEX
  VSB - VISIBILITY
$$




USA.gov is the U.S. government's official web portal to all federal, state and local government web resources and services.